Orbital Elements at Epoch 2459000.5 (2020-May-31.0) TDB
Reference: JPL 21 (heliocentric ecliptic J2000)
Element | Value | Uncertainty (1-sigma) | Units |
e | .09641657812080855 | 5.6788e-08 | |
a | 2.721287936502362 | 2.1175e-08 | au |
q | 2.458910665583368 | 1.6254e-07 | au |
i | 4.980648636676773 | 5.0566e-06 | deg |
node | 8.451549535794957 | 5.1609e-05 | deg |
peri | 156.4941900665265 | 5.6233e-05 | deg |
M | 319.9614440370142 | 2.3056e-05 | deg |
tp | 2459182.862726419255 (2020-Nov-29.36272642) | 0.00010582 | TDB |
period | 1639.684047836871 4.49 | 1.9138e-05 5.24e-08 | d yr |
n | .2195544931201378 | 2.5626e-09 | deg/d |
Q | 2.983665207421356 | 2.3217e-08 | au |
|
| | Orbit Determination Parameters
Additional Information
|